This is the latest recevied weather packets stored in our database for station/object N8VDS-10. If no packets are shown the sender has not sent any weather packets the latest 10 day(s).
| Time | Temp. | Humidity | Pressure | Rain* | Wind** | Luminosity | Snow |
|---|---|---|---|---|---|---|---|
| 1778139809 | 5° C | 68% | 1015.9 hPa | 0 mm | - | 0 W/m² | - |
| 1778139507 | 5° C | 66% | 1016 hPa | 0 mm | - | 0 W/m² | - |
| 1778139203 | 5° C | 66% | 1016.1 hPa | 0 mm | - | 0 W/m² | - |
| 1778138901 | 5° C | 67% | 1016.2 hPa | 0 mm | - | 0 W/m² | - |
| 1778138598 | 5.56° C | 65% | 1016 hPa | 0 mm | - | 0 W/m² | - |
| 1778138295 | 5.56° C | 64% | 1015.9 hPa | 0 mm | - | 0 W/m² | - |
| 1778137992 | 5° C | 65% | 1016 hPa | 0 mm | - | 0 W/m² | - |
| 1778137688 | 5° C | 65% | 1016.1 hPa | 0 mm | - | 0 W/m² | - |
| 1778137386 | 5° C | 66% | 1016.2 hPa | 0 mm | - | 0 W/m² | - |
| 1778137082 | 5° C | 65% | 1016.3 hPa | 0 mm | - | 0 W/m² | - |
| 1778136779 | 5.56° C | 64% | 1016.2 hPa | 0 mm | - | 0 W/m² | - |
| 1778136476 | 5.56° C | 62% | 1016.2 hPa | 0 mm | - | 0 W/m² | - |
| 1778136175 | 5.56° C | 62% | 1016.2 hPa | 0 mm | - | 0 W/m² | - |
| 1778135872 | 6.11° C | 61% | 1016.2 hPa | 0 mm | - | 0 W/m² | - |
| 1778135569 | 6.11° C | 60% | 1016.1 hPa | 0 mm | - | 0 W/m² | - |
| 1778135266 | 6.11° C | 60% | 1016.2 hPa | 0 mm | - | 0 W/m² | - |
| 1778134963 | 6.11° C | 61% | 1016.2 hPa | 0 mm | - | 0 W/m² | - |
| 1778134661 | 6.11° C | 62% | 1016.1 hPa | 0 mm | - | 0 W/m² | - |
| 1778134359 | 6.11° C | 60% | 1016.3 hPa | 0 mm | - | 0 W/m² | - |
| 1778134057 | 5.56° C | 63% | 1016.4 hPa | 0 mm | - | 0 W/m² | - |
| 1778133753 | 6.11° C | 62% | 1016.3 hPa | 0 mm | - | 0 W/m² | - |
| 1778133449 | 6.11° C | 64% | 1016.3 hPa | 0 mm | - | 0 W/m² | - |
| 1778133145 | 6.11° C | 64% | 1016.2 hPa | 0 mm | - | 0 W/m² | - |
| 1778132841 | 6.11° C | 62% | 1016.4 hPa | 0 mm | - | 0 W/m² | - |
| 1778132538 | 6.11° C | 63% | 1016.3 hPa | 0 mm | - | 0 W/m² | - |
* Rain latest hour (hover to see other rain measurements)
** Current wind speed in m/s (hover to see current wind gust speed)